WB5OMR-9 Weather Reports


time (UTC)temp
F
wind
direction
speed
knots
gust
knots
rain 1hr
in
rain 24hr
in
rain mn
in
humidity
%
barometer
mb
20260906010747 94 112 0.0 0.0 0.00 0.00 0.00 42 1010.5
20260906005703 95 90 0.0 0.0 0.00 0.00 0.00 42 1010.8
20260906004702 95 90 0.0 0.0 0.00 0.00 0.00 41 1010.8
20260906003701 96 112 0.0 0.0 0.00 0.00 0.00 40 1010.5
20260906002700 96 135 0.0 0.0 0.00 0.00 0.00 39 1010.5
20260906001659 97 90 0.0 0.0 0.00 0.00 0.00 38 1010.5
20260906000616 98 112 0.0 0.0 0.00 0.00 0.00 38 1010.5
20260905235615 99 135 0.0 0.0 0.00 0.00 0.00 38 1010.5
20260905234614 99 135 0.0 0.0 0.00 0.00 0.00 38 1010.5
20260905233613 100 247 0.0 0.0 0.00 0.00 0.00 39 1010.5
20260905232612 100 247 0.0 0.0 0.00 0.00 0.00 39 1010.5
20260905231611 100 247 0.0 0.0 0.00 0.00 0.00 38 1010.5
20260905230610 99 135 0.0 0.0 0.00 0.00 0.00 39 1010.5
20260905225609 100 135 0.0 0.0 0.00 0.00 0.00 38 1010.5
20260905224608 102 157 0.0 0.0 0.00 0.00 0.00 37 1010.5
20260905223607 103 247 0.0 0.0 0.00 0.00 0.00 36 1010.2
20260905222606 102 157 0.0 0.0 0.00 0.00 0.00 36 1010.5
20260905221605 103 112 0.0 0.0 0.00 0.00 0.00 36 1010.5
20260905220604 103 135 0.0 0.0 0.00 0.00 0.00 36 1010.5
20260905215604 103 157 0.0 0.0 0.00 0.00 0.00 38 1010.5
20260905214602 101 45 0.0 0.0 0.00 0.00 0.00 40 1010.5
20260905213601 100 247 0.0 0.0 0.00 0.00 0.00 40 1010.5
20260905212601 102 90 0.0 0.0 0.00 0.00 0.00 39 1010.8
20260905211559 102 135 0.0 0.0 0.00 0.00 0.00 40 1010.8
20260905210558 100 90 0.0 0.0 0.00 0.00 0.00 42 1010.8
20260905205557 99 157 0.0 0.0 0.00 0.00 0.00 42 1011.2
20260905204556 99 90 0.0 0.0 0.00 0.00 0.00 43 1011.5
20260905203555 100 112 0.0 0.0 0.00 0.00 0.00 42 1011.5
20260905202553 103 157 0.0 0.0 0.00 0.00 0.00 40 1011.9
20260905201509 104 112 0.0 0.0 0.00 0.00 0.00 39 1011.9
20260905200509 104 67 0.0 0.0 0.00 0.00 0.00 39 1012.2
20260905195508 103 180 0.0 0.0 0.00 0.00 0.00 40 1012.2
20260905194507 103 180 0.0 0.0 0.00 0.00 0.00 42 1012.2
20260905193506 101 180 0.0 0.0 0.00 0.00 0.00 43 1012.9
20260905192505 100 157 0.0 0.0 0.00 0.00 0.00 45 1013.2
20260905191504 100 180 0.0 0.0 0.00 0.00 0.00 44 1013.5
20260905190503 100 247 0.0 0.0 0.00 0.00 0.00 45 1013.9
20260905185502 98 135 0.0 0.0 0.00 0.00 0.00 45 1013.2
20260905184501 96 157 0.0 0.0 0.00 0.00 0.00 46 1012.9
20260905183500 97 180 0.0 0.0 0.00 0.00 0.00 48 1012.9
20260905182500 97 135 0.0 0.0 0.00 0.00 0.00 49 1013.2
20260905181459 97 202 0.0 0.0 0.00 0.00 0.00 50 1013.5
20260905180457 97 67 0.0 0.0 0.00 0.00 0.00 52 1013.9
20260905175456 95 112 0.0 0.0 0.00 0.00 0.00 53 1013.9
20260905174456 94 157 0.0 0.0 0.00 0.00 0.00 55 1014.2
20260905173455 93 157 0.0 0.0 0.00 0.00 0.00 57 1014.2
20260905172453 93 157 0.0 0.0 0.00 0.00 0.00 58 1014.6
20260905171451 92 135 0.0 0.0 0.00 0.00 0.00 59 1014.6
20260905170450 92 180 0.0 0.0 0.00 0.00 0.00 61 1014.6
20260905165449 91 157 0.0 0.0 0.00 0.00 0.00 61 1014.6
20260905164448 91 180 0.0 0.0 0.00 0.00 0.00 63 1014.6
20260905163447 91 202 0.0 0.0 0.00 0.00 0.00 63 1014.6
20260905162446 89 157 0.0 0.0 0.00 0.00 0.00 66 1014.6
20260905161445 88 247 0.0 0.0 0.00 0.00 0.00 69 1014.6
20260905160444 87 180 0.0 0.0 0.00 0.00 0.00 69 1014.9
20260905155442 88 180 0.0 0.0 0.00 0.00 0.00 69 1014.6
20260905154441 88 157 0.0 0.0 0.00 0.00 0.00 69 1014.6
20260905153440 88 157 0.0 0.0 0.00 0.00 0.00 69 1014.6
20260905152439 88 180 0.0 0.0 0.00 0.00 0.00 71 1014.6
20260905151438 86 135 0.0 0.0 0.00 0.00 0.00 75 1014.6
20260905150354 84 157 0.0 0.0 0.00 0.00 0.00 77 1014.6
20260905145310 84 157 0.0 0.0 0.00 0.00 0.00 77 1014.6
20260905144309 84 135 0.0 0.0 0.00 0.00 0.00 78 1014.6
20260905143308 84 135 0.0 0.0 0.00 0.00 0.00 78 1014.6
20260905142308 83 112 0.0 0.0 0.00 0.00 0.00 79 1014.6
20260905141307 82 112 0.0 0.0 0.00 0.00 0.00 80 1014.6
20260905140306 82 90 0.0 0.0 0.00 0.00 0.00 80 1014.6
20260905135306 82 135 0.0 0.0 0.00 0.00 0.00 80 1014.2
20260905134304 82 90 0.0 0.0 0.00 0.00 0.00 80 1014.2
20260905133302 82 157 0.0 0.0 0.00 0.00 0.00 80 1014.2
20260905132305 81 135 0.0 0.0 0.00 0.00 0.00 81 1014.2
20260905131218 81 135 0.0 0.0 0.00 0.00 0.00 81 1013.9
20260905130134 81 112 0.0 0.0 0.00 0.00 0.00 81 1013.9
20260905125134 80 90 0.0 0.0 0.00 0.00 0.00 81 1013.5
20260905124133 80 90 0.0 0.0 0.00 0.00 0.00 81 1013.5
20260905123132 80 67 0.0 0.0 0.00 0.00 0.00 81 1013.5
20260905122131 80 112 0.0 0.0 0.00 0.00 0.00 81 1013.2
20260905121129 80 67 0.0 0.0 0.00 0.00 0.00 80 1013.2
20260905120046 80 112 0.0 0.0 0.00 0.00 0.00 80 1013.2
20260905115002 80 112 0.0 0.0 0.00 0.00 0.00 79 1013.2
20260905113919 80 112 0.0 0.0 0.00 0.00 0.00 80 1013.2
20260905112918 80 112 0.0 0.0 0.00 0.00 0.00 79 1013.2
20260905111917 80 112 0.0 0.0 0.00 0.00 0.00 79 1012.9
20260905110917 80 112 0.0 0.0 0.00 0.00 0.00 79 1012.9
20260905105915 81 135 0.0 0.0 0.00 0.00 0.00 79 1012.9
20260905104914 81 90 0.0 0.0 0.00 0.00 0.00 78 1012.9
20260905103913 81 112 0.0 0.0 0.00 0.00 0.00 78 1012.9
20260905102913 81 112 0.0 0.0 0.00 0.00 0.00 78 1012.9
20260905101911 81 112 0.0 0.0 0.00 0.00 0.00 78 1012.9
20260905100910 81 112 0.0 0.0 0.00 0.00 0.00 78 1012.9
20260905095909 81 112 0.0 0.0 0.00 0.00 0.00 78 1012.9
20260905094908 81 90 0.0 0.0 0.00 0.00 0.00 77 1012.9
20260905093907 81 157 0.0 0.0 0.00 0.00 0.00 77 1012.9
20260905092906 81 135 0.0 0.0 0.00 0.00 0.00 77 1013.2
20260905091905 81 112 0.0 0.0 0.00 0.00 0.00 77 1013.2
20260905090904 81 135 0.0 0.0 0.00 0.00 0.00 75 1013.2
20260905085903 82 157 0.0 0.0 0.00 0.00 0.00 75 1013.2
20260905084902 82 135 0.0 0.0 0.00 0.00 0.00 75 1013.2
20260905083901 82 135 0.0 0.0 0.00 0.00 0.00 75 1013.2
20260905082818 82 112 0.0 0.0 0.00 0.00 0.00 74 1013.2
20260905081817 82 135 0.0 0.0 0.00 0.00 0.00 74 1013.2
20260905080816 82 135 0.0 0.0 0.00 0.00 0.00 74 1012.9
20260905075815 82 135 0.0 0.0 0.00 0.00 0.00 73 1012.9
20260905074814 82 112 0.0 0.0 0.00 0.00 0.00 73 1013.2
20260905073731 82 112 0.0 0.0 0.00 0.00 0.00 72 1013.2
20260905072648 82 135 0.0 0.0 0.00 0.00 0.00 72 1013.2
20260905071647 83 135 0.0 0.0 0.00 0.00 0.00 71 1013.2
20260905070603 83 135 0.0 0.0 0.00 0.00 0.00 71 1013.2
20260905065602 83 157 0.0 0.0 0.00 0.00 0.00 71 1013.2
20260905064601 83 112 0.0 0.0 0.00 0.00 0.00 71 1013.5
20260905063550 83 112 0.0 0.0 0.00 0.00 0.00 71 1013.5
20260905062549 83 135 0.0 0.0 0.00 0.00 0.00 71 1013.5
20260905061548 83 135 0.0 0.0 0.00 0.00 0.00 71 1013.5
20260905060504 84 202 0.0 0.0 0.00 0.00 0.00 70 1013.5
20260905055421 84 157 0.0 0.0 0.00 0.00 0.00 70 1013.2
20260905054338 84 135 0.0 0.0 0.00 0.00 0.00 69 1013.5
20260905053337 84 135 0.0 0.0 0.00 0.00 0.00 68 1013.5
20260905052253 84 157 0.0 0.0 0.00 0.00 0.00 67 1013.5
20260905051250 85 157 0.0 0.0 0.00 0.00 0.00 66 1013.5
20260905050249 85 135 0.0 0.0 0.00 0.00 0.00 65 1013.9
20260905045248 85 135 0.0 0.0 0.00 0.00 0.00 63 1013.9
20260905044247 85 135 0.0 0.0 0.00 0.00 0.00 62 1013.9
20260905043246 86 112 0.0 0.0 0.00 0.00 0.00 61 1013.9
20260905042246 86 157 0.0 0.0 0.00 0.00 0.00 60 1013.5
20260905041244 86 112 0.0 0.0 0.00 0.00 0.00 60 1013.5
20260905040243 86 157 0.0 0.0 0.00 0.00 0.00 60 1013.5
20260905035242 87 202 0.0 0.0 0.00 0.00 0.00 59 1013.5
20260905034240 87 135 0.0 0.0 0.00 0.00 0.00 59 1013.5
20260905033239 87 135 0.0 0.0 0.00 0.00 0.00 59 1013.5
20260905032156 87 157 0.0 0.0 0.00 0.00 0.00 58 1013.5
20260905031112 88 135 0.0 0.0 0.00 0.00 0.00 57 1013.2
20260905030111 88 135 0.0 0.0 0.00 0.00 0.00 56 1012.9
20260905025110 88 45 0.0 0.0 0.00 0.00 0.00 56 1012.9
20260905024108 88 67 0.0 0.0 0.00 0.00 0.00 56 1012.5
20260905023107 88 45 0.0 0.0 0.00 0.00 0.00 56 1011.9
20260905022105 89 67 0.0 0.0 0.00 0.00 0.00 56 1011.5
20260905021105 89 135 0.0 0.0 0.00 0.00 0.00 55 1011.9
20260905020104 90 112 0.0 0.0 0.00 0.00 0.00 54 1012.2
20260905015102 90 67 0.0 0.0 0.00 0.00 0.00 54 1012.5
20260905014101 90 45 0.0 0.0 0.00 0.00 0.00 53 1012.9
20260905013100 91 67 0.0 0.0 0.00 0.00 0.00 53 1012.5
20260905012059 91 112 0.0 0.0 0.00 0.00 0.00 53 1012.2